Regional Weather Roundup
Issued by NWS

Home | Current Version | Previous Version | Graphics & Text | Print | Product List | Glossary On
Versions: 1 2 3 4 5 6 7 8 9 10 11 12 13 14 15 16 17 18 19 20 21 22 23 24 25 26 27 28 29 30 31 32 33 34 35 36 37 38 39 40 41 42 43 44 45 46 47 48 49 50
000
ASUS43 KOAX 211402
RWRNE

WEATHER ROUNDUP FOR NEBRASKA
NATIONAL WEATHER SERVICE OMAHA NE
800 AM CST TUE FEB 21 2017

NOTES: SATELLITE DATA IS BEING USED TO AUGMENT CLOUD COVER ABOVE
       12000 FEET.
       "FAIR" INDICATES FEW OR NO CLOUDS BELOW 12,000 FEET WITH NO
       SIGNIFICANT WEATHER AND/OR OBSTRUCTIONS TO VISIBILITY.

  * THESE STATIONS DO NOT REPORT WEATHER SUCH AS RAIN...SNOW OR FOG.

NEZ001>004-019>022-054>056-211500-
NEBRASKA PANHANDLE

CITY           SKY/WX    TMP DP  RH WIND       PRES   REMARKS
SCOTTSBLUFF    CLOUDY    32  22  66 N7        29.92S WCI  26
ALLIANCE       CLEAR     30  22  72 CALM      29.91R
CHADRON        CLEAR     34  27  75 W8        29.85F WCI  27
KIMBALL        CLEAR     51  30  45 W7        29.98S
SIDNEY         CLOUDY    44  25  47 W13       29.97F
$$

NEZ057>060-069>072-079>082-211500-
SOUTHWEST NEBRASKA

CITY           SKY/WX    TMP DP  RH WIND       PRES   REMARKS
NORTH PLATTE   CLOUDY    28  22  78 CALM      29.96F
IMPERIAL       CLEAR     35  18  49 SW10      29.98R WCI  27
LEXINGTON      CLOUDY    39  22  51 W3        29.98R
MCCOOK         CLOUDY    29  22  75 SW7       30.00R WCI  22
OGALLALA       CLEAR     30  23  73 W9        29.95S WCI  22
$$

NEZ005>010-023>029-035>040-094-211500-
NORTH CENTRAL NEBRASKA

CITY           SKY/WX    TMP DP  RH WIND       PRES   REMARKS
VALENTINE      CLEAR     36  23  59 CALM      29.83F
AINSWORTH      CLEAR     42  25  50 SW13      29.84F
BROKEN BOW     CLEAR     42  22  44 CALM      29.94R
O`NEILL        CLEAR     41  28  60 SW13      29.88S
ORD            CLEAR     34  28  79 SE3       29.93S
THEDFORD       CLEAR     40  22  49 SW7       29.90S WCI  35
$$

NEZ041-046>049-061>064-073>077-083>087-211500-
SOUTH CENTRAL NEBRASKA

CITY           SKY/WX    TMP DP  RH WIND       PRES   REMARKS
GRAND ISLAND   CLEAR     43  34  70 SW10      29.98S
AURORA         CLEAR     37  33  84 SW9       29.99S WCI  30
HASTINGS       CLEAR     41  31  67 SW7       30.00S
HEBRON         CLOUDY    31  29  94 CALM      30.03S
HOLDREGE       CLOUDY    40  24  51 SW8       29.99S
KEARNEY *      CLEAR     37  25  60 SW12      29.98S WCI  30
YORK           CLEAR     37  34  87 SW10      29.99S WCI  30
$$

NEZ011>018-030>034-042>045-211500-
NORTHEAST NEBRASKA

CITY           SKY/WX    TMP DP  RH WIND       PRES   REMARKS
NORFOLK        CLEAR     44  33  65 S14       29.93R
ALBION         CLEAR     40  31  68 SE5       29.95S
BLAIR          CLEAR     36  35  94 S5        29.98S WCI  32
FREMONT        PTCLDY    32  32 100 CALM      29.98F
TEKAMAH        CLEAR     33  32  96 S9        29.97F WCI  25
WAYNE          PTCLDY    41  36  83 SW9       29.93S
$$

NEZ050>053-065>068-078-088>093-211500-
SOUTHEAST NEBRASKA

CITY           SKY/WX    TMP DP  RH WIND       PRES   REMARKS
LINCOLN        CLEAR     32  30  92 CALM      30.02R
OMAHA EPPLEY   PTCLDY    34  31  88 S7        30.01R WCI  28
BEATRICE       CLOUDY    30  28  94 CALM      30.03R
FALLS CITY     CLEAR     33  33 100 NW5       30.01R FOG     WCI  29
NEBRASKA CITY  CLEAR     40  38  89 W12       30.01R WCI  34
PLATTSMOUTH    CLEAR     39  34  84 W6        30.01S WCI  35
$$

NEZ044-045-051>053-067-211500-
OMAHA AREA

CITY           SKY/WX    TMP DP  RH WIND       PRES   REMARKS
OMAHA EPPLEY   PTCLDY    34  31  88 S7        30.01R WCI  28
BLAIR          CLEAR     36  35  94 S5        29.98S WCI  32
FREMONT        PTCLDY    32  32 100 CALM      29.98F
MILLARD        CLEAR     35  34  96 CALM      30.01R FOG
OFFUTT AFB     CLEAR    124 N/A N/A SE5       30.02R FOG
PLATTSMOUTH    CLEAR     39  34  84 W6        30.01S WCI  35
WAHOO          FAIR      37  33  86 S5        29.99S WCI  33
$$



USA.gov is the U.S. government's official web portal to all federal, state and local government web resources and services.